Вернуться в каталог

CZ-6A DEB

АктивенPO
NORAD 60814·DEBRIS·🇨🇳 China

Запущен Aug 6, 2024 с Taiyuan Satellite Launch Center

Loading…

Ближайшие Пролёты (ближайшие 24 часа)

TLE

СвежийSource: Space-Track

Эпоха: Sep 14, 2026, 07:01 UTC

1 60814U 24140GR  26257.29303068  .00000564  00000-0  29811-3 0  9992
2 60814  89.0578 271.5866 0086834 296.1169  63.1100 14.10731564107489

Отслеживайте CZ-6A DEB в реальном времени с AllMySat

Download on the App Store